Perseus-M 2

operational
NORAD ID: 40037 Int'l Des: 2014-033 Owner: CANOP Country: US
LEOCIRCULARRETROGRADESSO

About Perseus-M 2

Description loading...

Live Position

Loading 3D Globe...

Upcoming Passes

Altitude History

Altitude vs Time

uPlot chart will show altitude changes over time

Two-Line Element Set

1 40037U 14033AD 26061.13140950 .00003198 00000-0 29693-3 0 9996
2 40037 97.9848 9.5959 0010439 298.9974 61.0200 14.95113314634782
Epoch: Mar 2, 2026 • Age: 40 hours

Current Status

Altitude 593.1 km
Velocity 7.57 km/s
Sub-Earth Point -46.45°S, 20.16°W
Launch Date Jun 19, 2014
Age 11.7 years
Type other

Technical Details

Classification Payload
Mass 10.00 kg
Dry Mass 10.00 kg
Total Mass 10.00 kg
Length 0.30 m
Diameter 0.20 m
Span 0.30 m
Shape Box
Manufacturer CANOP
Bus Type Cubesat 6U
Phase Status In Orbit
Owner/State CANOP/US

Large Constellations

Loading constellations...